MST,Max TemperatureF,Mean TemperatureF,Min TemperatureF,Max Dew PointF,MeanDew PointF,Min DewpointF,Max Humidity, Mean Humidity, Min Humidity, Max Sea Level PressureIn, Mean Sea Level PressureIn, Min Sea Level PressureIn, Max VisibilityMiles, Mean VisibilityMiles, Min VisibilityMiles, Max Wind SpeedMPH, Mean Wind SpeedMPH, Max Gust SpeedMPH,PrecipitationIn, CloudCover, Events, WindDirDegrees
2011-11-1,57,42,27,34,28,23,100,82,30,30.06,29.98,29.75,10,5,1,22,6,30,0.10,7,Rain-Snow,294
2011-11-2,37,28,16,27,22,13,93,77,61,30.58,30.35,30.02,10,8,2,23,9,31,0.01,4,Snow,300
2011-11-3,48,30,12,19,15,8,88,66,28,30.56,30.33,30.06,10,10,10,16,2,,0.00,0,,289
2011-11-4,62,42,21,23,18,14,78,37,17,29.99,29.71,29.39,10,10,4,23,8,47,0.00,2,,176
2011-11-5,50,37,24,36,29,19,96,87,34,29.88,29.59,29.33,10,5,1,18,6,29,0.30,8,Rain-Snow,248
2011-11-6,35,26,19,23,21,17,92,77,61,30.07,30.00,29.90,10,10,10,13,4,,0.00,6,,132
2011-11-7,39,32,26,28,24,20,96,75,60,30.06,30.00,29.93,10,8,2,12,2,,0.00,7,Snow,14
2011-11-8,37,28,19,21,17,14,88,67,43,30.47,30.26,30.05,10,10,10,8,3,,0.00,3,,10
2011-11-9,39,26,12,17,13,9,84,63,28,30.67,30.58,30.49,10,10,10,9,3,,0.00,0,,71
2011-11-10,50,31,12,13,9,5,84,48,16,30.67,30.45,30.30,10,10,10,13,4,,0.00,0,,98
2011-11-11,51,30,10,15,9,2,84,43,13,30.32,30.06,29.79,10,10,10,16,4,21,0.00,1,,126
2011-11-12,46,42,37,23,19,14,49,41,31,29.81,29.69,29.59,10,10,10,28,13,37,0.00,8,,227
2011-11-13,44,34,24,34,29,19,100,76,45,29.89,29.71,29.60,10,8,1,26,15,45,0.24,6,Rain-Snow-Thunderstorm,240
2011-11-14,48,34,21,26,19,12,85,54,24,29.88,29.81,29.70,10,10,10,29,6,39,0.00,1,,246
2011-11-15,46,34,23,24,16,11,78,51,24,30.06,29.94,29.81,10,10,10,15,5,26,0.00,2,,273
2011-11-16,37,26,14,17,11,-2,85,61,19,30.44,30.31,30.09,10,10,10,10,2,,0.00,0,,88
2011-11-17,46,31,16,16,12,7,78,46,20,30.37,30.12,29.78,10,10,10,15,6,28,0.00,1,,180
2011-11-18,53,46,39,21,19,17,45,36,26,29.77,29.54,29.34,10,10,10,25,15,43,0.00,0,,211
2011-11-19,46,34,23,28,26,20,100,90,35,29.96,29.79,29.35,10,3,0,25,9,40,0.13,8,Fog-Snow,237
2011-11-20,46,35,24,30,26,22,96,86,50,30.11,29.99,29.90,10,7,2,15,1,22,0.02,6,Snow,279
2011-11-21,41,34,28,37,31,25,100,92,79,30.21,30.08,30.00,10,8,1,7,1,20,0.13,7,Rain-Snow,197
2011-11-22,46,34,23,31,26,21,100,88,51,30.44,30.30,30.22,10,6,0,8,1,,0.00,3,Fog,59
2011-11-23,55,38,21,26,21,18,89,66,25,30.41,30.28,30.14,10,10,10,12,2,,0.00,0,,24
2011-11-24,53,35,17,24,20,14,92,62,26,30.21,30.05,29.96,10,10,10,13,2,,0.00,0,,150
2011-11-25,46,32,19,25,20,10,89,62,40,30.34,30.04,29.89,10,10,10,20,5,38,0.00,2,,297
2011-11-26,33,22,12,11,6,-1,74,54,23,30.82,30.66,30.36,10,10,10,12,5,,0.00,0,,90
2011-11-27,46,28,10,16,10,4,81,55,21,30.81,30.65,30.49,10,10,10,6,1,,0.00,0,,159
2011-11-28,54,36,18,22,16,12,81,56,19,30.54,30.41,30.29,10,10,10,7,1,,0.00,0,,331
2011-11-29,51,34,18,22,18,15,88,61,26,30.51,30.36,30.21,10,10,10,7,1,,0.00,0,,161
2011-11-30,50,34,19,25,17,14,88,52,24,30.18,29.95,29.83,10,10,9,20,5,28,0.00,1,,203